EHI
34 36 36 34 33 33 34 35 35 35 34 29 21 15 10 5 4 5 3 3 5 6 6 7 8 7 5 3 1 0 0 0 0 0 0 0 0 0 0 0 1 1 0
35 37 37 35 35 36 37 36 36 36 34 28 20 14 9 6 6 6 5 6 8 9 7 7 7 7 5 3 1 1 1 0 0 0 0 0 0 0 0 0 1 1 1
36 36 36 36 36 37 38 37 36 35 32 26 19 13 9 8 9 8 7 8 9 10 8 7 7 6 5 4 2 2 2 1 0 0 0 0 0 0 0 0 1 1 1
35 35 36 35 35 36 38 38 37 34 28 23 18 13 9 8 9 9 7 7 8 8 8 8 8 7 7 5 4 4 3 2 1 0 0 0 0 0 0 0 0 0 1
34 35 36 36 35 36 38 38 37 33 26 20 16 12 9 9 8 7 5 5 7 8 9 9 10 10 8 7 6 5 4 4 2 1 0 0 0 1 0 0 0 0 0
33 34 37 37 37 37 38 37 35 31 26 21 17 12 10 9 8 6 3 3 7 10 11 10 11 11 10 9 7 6 6 5 4 2 1 0 0 1 0 0 0 0 0
29 32 36 37 37 37 38 38 35 31 27 23 17 12 9 9 8 5 2 4 8 11 11 11 12 11 12 10 8 7 7 7 6 5 3 1 1 1 1 1 1 0 0
25 29 34 36 36 35 35 36 35 31 27 23 18 13 11 10 8 4 3 5 8 10 10 11 12 12 11 10 8 8 8 8 9 7 5 3 2 2 2 2 2 1 0
22 26 30 32 31 29 29 30 30 28 25 22 19 15 13 11 8 6 5 6 7 8 9 9 10 10 9 8 7 7 7 8 9 9 7 5 4 2 1 1 2 2 1
18 21 24 24 23 21 22 25 25 23 21 20 17 15 13 12 10 8 7 6 7 7 7 7 8 7 7 6 5 5 5 6 8 8 7 7 5 2 0 0 1 1 1
14 16 17 16 16 15 17 21 23 20 17 15 14 13 12 12 12 10 8 7 6 6 6 6 6 5 4 4 5 5 5 6 6 7 8 7 5 2 0 1 1 1 1
11 12 13 13 13 13 14 17 21 20 16 13 14 14 13 13 13 12 10 8 6 6 6 6 5 4 3 3 4 4 5 5 5 5 6 5 3 1 1 1 2 1 1
12 12 12 13 13 14 15 16 18 18 14 12 14 15 14 13 13 13 12 9 6 6 5 5 3 3 2 2 2 3 3 3 3 2 2 2 1 2 2 2 1 1 0
16 13 12 13 14 15 17 17 17 15 11 11 13 14 14 13 12 13 13 10 6 4 3 2 1 1 1 1 1 1 1 1 1 0 0 0 1 2 3 3 2 1 1
19 15 13 14 15 17 18 17 14 12 10 10 11 12 12 11 11 11 12 11 7 4 2 1 0 0 0 0 0 0 0 0 0 0 0 1 2 3 3 3 3 3 2
20 17 15 17 18 18 16 13 11 10 8 8 8 9 10 10 10 10 11 11 8 5 3 1 0 0 0 0 0 0 0 0 0 0 0 2 3 3 3 2 2 3 3
18 16 16 17 18 16 12 8 7 7 6 6 6 6 7 8 9 9 9 9 7 5 4 2 0 0 0 0 0 0 0 0 0 0 0 1 2 3 3 2 2 2 3
13 14 14 15 14 11 7 5 3 3 4 4 4 4 4 5 7 7 7 7 6 6 5 3 1 0 0 0 0 0 0 0 0 0 0 0 1 2 2 3 3 3 3
11 11 11 10 9 6 4 3 1 1 2 3 3 3 3 4 6 6 6 6 7 7 6 4 2 1 1 0 0 0 0 0 0 0 0 0 1 1 1 1 2 3 3
9 9 8 7 5 4 2 1 0 0 1 3 3 3 4 5 6 6 6 6 7 7 6 4 3 3 2 1 0 0 0 0 0 0 0 0 0 0 0 0 1 2 2
7 7 7 6 4 3 2 1 0 0 1 2 3 2 3 5 6 6 6 6 7 7 6 4 3 3 2 1 0 0 0 0 0 0 0 0 0 0 0 0 0 1 1
5 6 6 6 3 2 2 1 0 0 1 2 2 1 2 3 3 4 4 5 5 5 4 3 3 2 1 0 0 0 0 0 0 0 0 0 0 0 0 0 0 0 0
6 6 6 6 3 2 2 1 0 0 0 1 1 1 1 1 1 1 1 2 2 2 1 1 2 1 0 0 0 0 0 0 0 0 0 0 0 0 0 0 0 0 0
6 6 6 6 4 2 1 0 0 0 0 0 1 1 1 0 0 0 0 0 0 0 0 0 1 0 0 0 0 0 0 0 0 0 1 0 0 0 0 0 0 0 0
6 6 6 6 4 2 1 0 0 0 0 0 0 0 0 0 0 0 0 0 0 0 0 0 1 0 0 0 0 0 0 0 0 0 0 0 0 0 0 0 0 1 1
5 6 6 6 4 1 0 0 0 0 0 0 0 0 0 0 0 1 1 1 0 0 0 0 1 0 0 0 0 0 0 0 0 0 0 0 0 0 0 0 1 2 2
Wind_Speed
6 6 6 6 7 6 7 6 6 4 4 3 2 2 1 1 1 1 1 1 1 2 3 2 2 2 2 2 2 2 3 2 2 3 3 3 3 2 1 2 2 3 3
6 6 6 6 7 7 7 6 6 4 4 3 2 2 2 1 1 1 1 1 2 2 3 3 2 2 2 3 3 2 2 1 2 3 3 2 3 2 1 1 2 2 2
11 9 9 8 8 8 8 7 6 5 4 4 3 3 2 2 2 1 1 1 2 2 3 3 3 2 2 2 2 2 3 2 1 1 3 3 2 1 2 1 1 1 2
11 11 10 10 9 8 7 6 5 5 4 5 4 5 3 2 1 1 0 1 1 2 2 3 3 3 2 2 2 2 2 3 1 1 1 2 4 3 0 2 1 1 1
10 11 11 10 8 7 7 6 5 4 4 4 5 4 3 2 1 1 1 1 1 1 1 2 2 2 2 2 2 2 2 2 2 1 1 1 1 2 3 1 1 1 1
6 8 8 7 7 7 6 6 5 3 3 4 4 4 4 3 3 2 1 0 0 1 1 2 1 1 2 2 2 2 2 2 2 2 2 2 2 2 2 2 1 1 2
7 7 7 7 7 7 7 6 7 5 4 4 3 4 4 4 4 2 2 1 0 0 0 1 1 0 1 1 2 2 2 2 3 2 2 2 2 2 2 2 1 1 1
7 8 8 8 8 7 7 6 6 5 4 4 3 3 4 3 2 2 2 2 1 1 1 1 1 0 1 1 1 1 2 2 2 2 2 2 1 2 2 3 3 1 1
6 7 7 7 7 6 6 6 6 5 5 4 4 3 3 3 3 2 2 1 1 1 1 1 1 0 1 1 1 1 2 2 2 2 2 2 1 1 2 2 3 4 2
6 6 6 6 6 5 5 5 5 5 5 5 4 3 3 3 3 2 2 1 1 1 1 1 1 1 0 0 0 1 1 1 1 2 2 2 2 1 1 2 2 3 3
7 6 5 5 5 4 5 5 4 4 4 4 3 3 2 2 2 2 2 2 1 1 1 1 1 1 1 1 1 1 1 2 1 1 2 2 2 1 1 1 1 2 2
6 6 6 5 4 4 4 4 4 4 3 3 3 3 3 2 2 2 1 1 1 1 1 1 1 1 1 1 1 1 1 2 2 2 2 2 2 2 2 1 2 2 2
6 5 5 4 4 4 3 3 3 3 3 3 3 3 2 2 3 2 2 2 1 1 1 1 1 1 1 1 1 1 1 2 2 3 3 3 2 2 2 2 2 1 2
7 6 5 3 3 3 4 3 3 3 3 3 3 3 3 3 3 2 2 2 2 1 1 1 1 1 1 1 1 1 1 1 2 2 2 3 3 4 3 2 2 2 1
5 6 6 4 3 3 3 3 2 2 3 3 3 3 3 2 2 2 2 2 2 2 2 1 1 1 2 2 2 2 2 2 2 1 2 3 3 4 4 3 3 3 2
5 5 5 4 4 4 3 3 3 2 3 3 3 3 3 2 2 2 2 2 1 2 1 2 2 2 2 2 3 3 2 2 2 2 2 2 2 3 4 4 4 5 4
5 5 5 4 3 3 3 3 2 2 2 2 2 2 2 2 2 2 2 2 3 2 2 2 2 2 2 3 3 4 2 2 2 3 2 2 2 2 1 2 2 2 4
5 4 3 3 2 2 2 2 2 2 2 2 2 2 3 2 2 1 2 3 3 2 2 2 2 2 3 3 3 3 2 2 2 3 3 3 3 2 2 1 1 2 2
4 4 4 4 3 2 2 2 1 1 1 2 2 2 3 3 3 3 3 3 2 2 3 3 3 3 3 4 4 4 2 2 3 3 3 3 3 4 3 2 2 2 3
4 4 4 3 3 2 3 3 2 2 1 2 2 2 2 3 3 3 3 2 2 2 2 2 3 3 3 4 4 4 2 2 2 2 2 4 4 4 3 2 2 3 4
5 5 5 3 2 2 4 4 2 1 1 0 0 1 1 2 3 3 2 2 1 1 1 2 2 3 3 3 4 5 3 3 2 2 2 2 3 4 4 4 4 6 4
4 4 4 3 2 2 4 3 1 1 0 1 1 0 1 1 1 2 1 1 1 1 1 1 1 1 2 2 3 4 4 3 2 3 3 3 3 3 4 3 5 5 3
4 3 4 2 1 1 3 3 2 1 1 1 1 1 0 0 1 1 2 1 1 1 1 1 1 2 1 1 2 4 4 5 3 3 4 4 4 3 3 4 5 3 2
3 3 4 3 1 1 1 2 2 2 2 1 0 0 0 1 1 1 1 1 2 1 1 2 2 2 2 1 1 2 2 3 3 3 3 3 4 3 3 3 2 2 2
3 3 4 3 3 2 1 1 1 2 1 1 1 1 0 1 1 1 1 2 2 4 4 3 3 2 3 4 4 3 3 3 3 2 1 1 1 1 1 1 1 1 1
4 3 3 3 3 2 1 1 1 2 2 1 1 1 1 1 1 1 1 2 2 3 5 5 5 4 5 4 4 4 4 4 3 2 1 2 2 3 3 2 2 2 2
Wind_Direction
155 133 130 138 140 135 131 130 129 133 127 119 118 117 117 120 95 95 91 89 106 118 111 101 84 80 87 83 89 98 89 80 93 85 59 33 40 63 106 133 139 157 165
132 137 135 144 146 141 138 135 136 136 134 131 136 140 135 122 118 60 56 67 100 127 127 116 113 100 93 77 75 91 98 91 95 112 104 58 15 1 10 93 138 157 159
158 163 161 163 153 149 152 151 150 145 140 131 113 100 76 58 48 37 33 7 82 114 123 131 126 115 108 112 109 113 120 132 62 110 137 141 178 294 337 348 127 148 158
165 169 169 168 163 159 152 147 145 138 139 134 130 130 131 141 184 180 155 34 58 84 105 127 138 135 125 130 143 125 127 130 125 43 70 141 152 147 177 330 325 200 175
169 172 173 168 156 147 143 141 135 133 138 136 142 139 136 148 145 116 94 66 32 52 88 102 114 143 148 149 144 131 126 131 142 143 119 87 82 117 140 194 289 314 250
152 160 160 147 144 145 140 136 129 134 139 143 148 145 145 142 130 121 111 87 26 18 51 93 98 148 162 169 169 158 140 146 141 143 137 142 147 161 147 169 207 240 270
139 136 139 143 150 152 149 148 149 156 156 146 151 150 149 148 154 162 161 145 127 22 28 98 136 168 204 191 176 162 157 160 156 164 162 158 168 158 150 150 173 222 285
144 145 151 149 149 154 154 156 158 158 157 154 158 144 142 149 160 159 153 165 187 199 195 177 164 173 210 211 181 171 188 172 176 180 176 169 181 158 157 161 154 145 323
142 143 147 146 146 149 158 167 165 161 162 162 155 146 149 152 160 164 155 162 181 183 174 176 181 249 249 230 185 186 207 187 184 193 196 189 201 177 173 165 160 158 175
137 138 145 150 157 160 157 157 159 166 165 160 159 158 160 160 161 159 161 163 184 175 160 167 199 235 249 233 207 199 205 171 205 196 187 202 216 207 180 176 167 162 163
152 147 145 145 144 143 154 158 154 151 158 159 156 155 162 164 161 166 175 170 164 163 174 200 207 216 232 218 189 205 196 192 214 213 183 209 208 198 201 177 165 161 150
151 145 142 137 135 140 149 154 153 150 160 159 156 166 170 164 169 184 189 166 166 181 196 208 216 224 217 186 171 200 196 199 209 220 202 216 203 200 198 182 192 192 179
137 131 133 142 148 153 153 150 146 148 154 154 158 162 167 176 187 192 184 175 177 191 213 201 212 228 215 196 210 206 198 204 218 219 208 218 197 209 213 195 193 205 184
144 138 139 159 155 156 160 153 150 152 156 162 171 175 187 193 198 191 180 188 195 206 227 232 224 209 189 192 212 208 201 215 235 234 218 216 203 205 208 204 203 198 175
148 149 150 155 151 157 163 159 157 163 163 166 182 198 201 192 189 188 189 197 206 215 223 229 250 233 202 211 207 215 206 211 232 248 231 227 215 210 206 204 201 190 187
159 151 146 146 158 163 167 164 170 178 167 175 196 201 188 186 194 204 202 195 212 226 210 223 233 237 238 226 215 201 207 207 213 239 257 253 236 232 228 223 209 193 193
163 155 157 158 166 175 168 174 182 166 160 173 186 187 185 200 221 216 201 204 209 210 208 222 223 230 248 240 229 218 201 206 218 223 235 260 258 236 229 254 249 232 222
163 151 149 147 159 156 148 154 147 148 160 183 199 187 183 200 218 217 238 231 212 206 215 224 227 226 245 228 221 214 195 208 229 231 227 232 254 251 216 207 236 266 264
156 153 154 148 141 140 142 126 108 125 159 194 214 209 192 191 204 222 242 236 209 218 219 213 213 217 248 235 222 202 189 221 248 251 242 229 237 244 226 194 222 275 285
139 141 133 118 122 126 115 106 98 91 179 228 228 217 185 185 203 219 232 243 214 221 224 227 219 215 235 240 222 197 182 216 251 269 265 250 240 244 230 202 207 246 265
142 138 128 130 151 139 112 108 109 138 240 203 170 207 202 198 206 212 225 226 214 218 234 240 242 231 235 236 218 195 184 207 234 257 269 268 254 242 235 220 217 234 246
138 140 135 139 153 140 123 120 145 225 83 78 69 353 271 232 190 192 212 191 168 188 231 241 278 281 267 242 220 207 214 213 215 242 254 256 255 255 250 235 234 243 245
150 144 136 138 165 169 146 149 191 175 101 79 55 342 322 304 216 191 190 178 173 186 228 233 246 271 277 262 236 223 232 239 235 244 249 258 254 252 252 243 243 241 214
158 147 139 149 189 210 172 174 179 156 119 119 199 318 41 340 305 226 194 178 188 196 219 223 236 252 265 263 259 237 233 242 245 253 260 267 266 258 242 254 256 228 207
161 153 156 168 179 176 193 218 173 155 153 172 199 232 224 230 278 268 227 203 214 202 205 220 218 213 240 249 233 215 221 225 230 224 250 268 274 277 263 256 254 240 216
161 158 164 173 181 173 196 223 185 162 160 175 214 218 221 241 245 219 320 328 277 256 233 223 217 228 228 239 224 219 231 235 210 175 219 234 236 239 239 236 249 241 227